Time_in_sec,Latitude,Longitude,Altitude,Nbsat_max_qualitysignal,Nbsat_locked,valid_data
1314363857.12136364,0.00006454,0.00005886,-11811.78808594,0,0,0
1314363958.36145902,0.00006234,0.00005852,-14354.41210938,0,0,0
1314363958.41299081,0.00006233,0.00005848,-14355.70019531,0,0,0
1314363958.46160436,0.00006234,0.00005852,-14356.98828125,0,0,0
1314363958.52031875,0.00006233,0.00005848,-14358.27539062,0,0,0
1314363958.56064367,0.00006233,0.00005848,-14359.82128906,0,0,0
1314363958.62148356,0.00006233,0.00005848,-14360.85058594,0,0,0
1314363958.67345834,0.00006233,0.00005848,-14362.39648438,0,0,0
1314363958.72096395,0.00006233,0.00005852,-14363.68359375,0,0,0
1314363958.77346945,0.00006233,0.00005848,-14364.97167969,0,0,0
1314363958.82093334,0.00006233,0.00005852,-14366.25976562,0,0,0
1314363958.86159372,0.00006233,0.00005848,-14367.54785156,0,0,0
1314363958.91096950,0.00006233,0.00005848,-14368.57812500,0,0,0
1314363958.96422791,0.00006233,0.00005852,-14369.86621094,0,0,0
1314363959.01268768,0.00006233,0.00005848,-14371.15429688,0,0,0
1314363959.07350683,0.00006233,0.00005852,-14372.44140625,0,0,0
1314363959.11361933,0.00006233,0.00005852,-14373.98730469,0,0,0
1314363959.16148210,0.00006233,0.00005852,-14375.01757812,0,0,0
1314363959.21360207,0.00006232,0.00005848,-14376.30566406,0,0,0
1314363959.26087761,0.00006233,0.00005852,-14377.59375000,0,0,0
1314363959.30984521,0.00006232,0.00005848,-14378.88281250,0,0,0
1314363959.36089778,0.00006233,0.00005852,-14380.17089844,0,0,0
1314363959.41298604,0.00006232,0.00005848,-14381.45898438,0,0,0
1314363959.46047378,0.00006233,0.00005852,-14382.74707031,0,0,0
1314363959.52058387,0.00006232,0.00005848,-14384.03515625,0,0,0
1314363959.56145406,0.00006232,0.00005848,-14385.58105469,0,0,0
1314363959.62058568,0.00006232,0.00005848,-14386.61230469,0,0,0
1314363959.67259669,0.00006232,0.00005848,-14388.15820312,0,0,0
1314363959.71347618,0.00006233,0.00005852,-14389.44628906,0,0,0
1314363959.76154399,0.00006233,0.00005852,-14390.47753906,0,0,0
1314363959.81246066,0.00006232,0.00005848,-14391.76562500,0,0,0
1314363959.86146235,0.00006233,0.00005852,-14393.05468750,0,0,0
1314363959.92083645,0.00006232,0.00005848,-14394.34277344,0,0,0
1314363959.96146536,0.00006232,0.00005848,-14395.88964844,0,0,0
1314363960.02084517,0.00006232,0.00005848,-14396.91992188,0,0,0
1314363960.06182957,0.00006232,0.00005848,-14398.46679688,0,0,0
1314363960.12148261,0.00006232,0.00005848,-14399.49804688,0,0,0
1314363960.16147542,0.00006232,0.00005848,-14401.04394531,0,0,0
1314363960.22149825,0.00006231,0.00005848,-14402.07519531,0,0,0
1314363960.27290821,0.00006231,0.00005848,-14403.62207031,0,0,0
1314363960.31376839,0.00006233,0.00005852,-14404.91015625,0,0,0
1314363960.37344146,0.00006232,0.00005852,-14405.94140625,0,0,0
1314363960.41489029,0.00006232,0.00005852,-14407.48828125,0,0,0
1314363960.46161580,0.00006232,0.00005852,-14408.51953125,0,0,0
1314363960.52339387,0.00006231,0.00005848,-14409.80859375,0,0,0
1314363960.56225824,0.00006231,0.00005848,-14411.35546875,0,0,0
1314363960.61248541,0.00006231,0.00005848,-14412.38574219,0,0,0
1314363960.67345619,0.00006232,0.00005852,-14413.67480469,0,0,0
1314363960.71258569,0.00006232,0.00005852,-14415.22167969,0,0,0
1314363960.76145172,0.00006232,0.00005852,-14416.25292969,0,0,0
1314363960.82082605,0.00006231,0.00005848,-14417.54199219,0,0,0
1314363960.86160088,0.00006231,0.00005848,-14419.08886719,0,0,0
1314363960.92148757,0.00006231,0.00005848,-14420.12109375,0,0,0
1314363960.96160746,0.00006231,0.00005848,-14421.66796875,0,0,0
1314363961.01292205,0.00006231,0.00005848,-14422.69921875,0,0,0
1314363961.06047964,0.00006232,0.00005852,-14423.98828125,0,0,0
1314363961.11268187,0.00006231,0.00005848,-14425.27734375,0,0,0
1314363961.17346907,0.00006232,0.00005852,-14426.56640625,0,0,0
1314363961.21346283,0.00006232,0.00005852,-14428.11328125,0,0,0
1314363961.27266407,0.00006232,0.00005852,-14429.14550781,0,0,0
1314363961.31427526,0.00006232,0.00005852,-14430.69238281,0,0,0
1314363961.36146998,0.00006232,0.00005852,-14431.72363281,0,0,0
1314363961.42164731,0.00006230,0.00005848,-14433.01367188,0,0,0
1314363961.46148229,0.00006230,0.00005848,-14434.56054688,0,0,0
1314363961.52160668,0.00006230,0.00005848,-14435.59179688,0,0,0
1314363961.56145716,0.00006230,0.00005848,-14437.13964844,0,0,0
1314363961.62159276,0.00006230,0.00005848,-14438.17089844,0,0,0
1314363961.67251420,0.00006230,0.00005848,-14439.71875000,0,0,0
1314363961.71346855,0.00006231,0.00005852,-14441.00781250,0,0,0
1314363961.76159906,0.00006231,0.00005852,-14442.03906250,0,0,0
1314363961.81346273,0.00006230,0.00005848,-14443.32910156,0,0,0
1314363961.87350631,0.00006231,0.00005852,-14444.61816406,0,0,0
1314363961.91261816,0.00006231,0.00005852,-14446.16601562,0,0,0
1314363961.96145606,0.00006231,0.00005852,-14447.19726562,0,0,0
1314363962.02058792,0.00006229,0.00005848,-14448.48730469,0,0,0
1314363962.06083751,0.00006229,0.00005848,-14450.03515625,0,0,0
1314363962.12145829,0.00006229,0.00005848,-14451.06738281,0,0,0
1314363962.16161394,0.00006229,0.00005848,-14452.61523438,0,0,0
1314363962.21361041,0.00006229,0.00005848,-14453.64648438,0,0,0
1314363962.26150274,0.00006231,0.00005852,-14454.93652344,0,0,0
1314363962.31401443,0.00006229,0.00005848,-14456.22656250,0,0,0
1314363962.37353182,0.00006231,0.00005852,-14457.51660156,0,0,0
1314363962.41359663,0.00006231,0.00005852,-14459.06445312,0,0,0
1314363962.46160436,0.00006231,0.00005852,-14460.09570312,0,0,0
1314363962.52145267,0.00006229,0.00005848,-14461.38671875,0,0,0
1314363962.56083345,0.00006229,0.00005848,-14462.93457031,0,0,0
1314363962.61287951,0.00006229,0.00005848,-14463.96679688,0,0,0
1314363962.66147971,0.00006230,0.00005852,-14465.25585938,0,0,0
1314363962.71359444,0.00006229,0.00005848,-14466.54687500,0,0,0
1314363962.76154613,0.00006230,0.00005852,-14467.83691406,0,0,0
1314363962.82068682,0.00006228,0.00005848,-14469.12695312,0,0,0
1314363962.86166191,0.00006228,0.00005848,-14470.67480469,0,0,0
1314363962.92073178,0.00006228,0.00005848,-14471.70703125,0,0,0
1314363962.96146894,0.00006228,0.00005848,-14473.25585938,0,0,0
1314363963.01366782,0.00006228,0.00005848,-14474.28808594,0,0,0
1314363963.06148744,0.00006230,0.00005852,-14475.57812500,0,0,0
1314363963.12159371,0.00006228,0.00005848,-14476.86816406,0,0,0
1314363963.16145849,0.00006228,0.00005848,-14478.41699219,0,0,0
1314363963.22071981,0.00006228,0.00005848,-14479.44921875,0,0,0
1314363963.26075053,0.00006228,0.00005848,-14480.99804688,0,0,0
1314363963.30970955,0.00006228,0.00005848,-14482.03027344,0,0,0
1314363963.36048341,0.00006229,0.00005852,-14483.32031250,0,0,0
1314363963.42147851,0.00006227,0.00005848,-14484.61132812,0,0,0
1314363963.47245836,0.00006227,0.00005848,-14486.15917969,0,0,0
1314363963.51265669,0.00006229,0.00005852,-14487.45019531,0,0,0
1314363963.56146646,0.00006229,0.00005852,-14488.48242188,0,0,0
1314363963.61362004,0.00006227,0.00005848,-14489.77343750,0,0,0
1314363963.66148639,0.00006229,0.00005852,-14491.06347656,0,0,0
1314363963.71346402,0.00006227,0.00005848,-14492.35449219,0,0,0
1314363963.76164222,0.00006229,0.00005852,-14493.64453125,0,0,0
1314363963.81250238,0.00006227,0.00005848,-14494.93554688,0,0,0
1314363963.87247396,0.00006229,0.00005853,-14496.22656250,0,0,0
1314363963.91354132,0.00006229,0.00005853,-14497.77539062,0,0,0
1314363963.96145678,0.00006229,0.00005853,-14498.80761719,0,0,0
1314363964.01246929,0.00006226,0.00005848,-14500.09863281,0,0,0
1314363964.06164217,0.00006228,0.00005853,-14501.38964844,0,0,0
1314363964.11350584,0.00006226,0.00005848,-14502.68066406,0,0,0
1314363964.16165376,0.00006228,0.00005853,-14503.97070312,0,0,0
1314363964.21247983,0.00006226,0.00005848,-14505.26171875,0,0,0
1314363964.27254725,0.00006228,0.00005853,-14506.55273438,0,0,0
1314363964.31367135,0.00006228,0.00005853,-14508.10156250,0,0,0
1314363964.36145639,0.00006228,0.00005853,-14509.13476562,0,0,0
1314363964.41248226,0.00006226,0.00005848,-14510.42578125,0,0,0
1314363964.46074176,0.00006228,0.00005853,-14511.71679688,0,0,0
1314363964.52148199,0.00006226,0.00005848,-14513.00781250,0,0,0
1314363964.56074286,0.00006226,0.00005849,-14514.55761719,0,0,0
1314363964.61280823,0.00006225,0.00005849,-14515.58984375,0,0,0
1314363964.66050339,0.00006227,0.00005853,-14516.88085938,0,0,0
1314363964.71255016,0.00006225,0.00005849,-14518.17285156,0,0,0
1314363964.76144934,0.00006227,0.00005853,-14519.46386719,0,0,0
1314363964.82145977,0.00006225,0.00005849,-14520.75488281,0,0,0
1314363964.86069918,0.00006225,0.00005849,-14522.30468750,0,0,0
1314363964.91749215,0.00006225,0.00005849,-14523.33789062,0,0,0
1314363964.96045876,0.00006227,0.00005853,-14524.62890625,0,0,0
1314363965.02146077,0.00006225,0.00005849,-14525.91992188,0,0,0
1314363965.06228852,0.00006225,0.00005849,-14527.46972656,0,0,0
1314363965.11266351,0.00006225,0.00005849,-14528.50292969,0,0,0
1314363965.16151047,0.00006227,0.00005853,-14529.79394531,0,0,0
1314363965.21267915,0.00006224,0.00005849,-14531.08593750,0,0,0
1314363965.26078725,0.00006226,0.00005853,-14532.37695312,0,0,0
1314363965.31351399,0.00006224,0.00005849,-14533.66894531,0,0,0
1314363965.36065364,0.00006226,0.00005853,-14534.95996094,0,0,0
1314363965.41259789,0.00006224,0.00005849,-14536.25195312,0,0,0
1314363965.47350836,0.00006226,0.00005853,-14537.54296875,0,0,0
1314363965.52168512,0.00006226,0.00005853,-14539.09277344,0,0,0
1314363965.56147742,0.00006224,0.00005849,-14540.38476562,0,0,0
1314363965.62077379,0.00006224,0.00005849,-14541.41796875,0,0,0
1314363965.66149259,0.00006224,0.00005849,-14542.96875000,0,0,0
1314363965.71346068,0.00006224,0.00005849,-14544.00195312,0,0,0
1314363965.76236916,0.00006226,0.00005853,-14545.29296875,0,0,0
1314363965.81269932,0.00006223,0.00005849,-14546.58496094,0,0,0
1314363965.87291455,0.00006225,0.00005853,-14547.87695312,0,0,0
1314363965.91266751,0.00006225,0.00005854,-14549.42675781,0,0,0
1314363965.96147966,0.00006225,0.00005854,-14550.46093750,0,0,0
1314363966.01349711,0.00006223,0.00005849,-14551.75292969,0,0,0
1314363966.06049943,0.00006225,0.00005854,-14553.04394531,0,0,0
1314363966.12347579,0.00006223,0.00005849,-14554.33593750,0,0,0
1314363966.16209412,0.00006223,0.00005849,-14555.88671875,0,0,0
1314363966.22148800,0.00006223,0.00005849,-14556.92089844,0,0,0
1314363966.26176023,0.00006222,0.00005849,-14558.47070312,0,0,0
1314363966.31271577,0.00006222,0.00005849,-14559.50488281,0,0,0
1314363966.36180091,0.00006225,0.00005854,-14560.79687500,0,0,0
1314363966.41265059,0.00006222,0.00005849,-14562.08886719,0,0,0
1314363966.46052527,0.00006224,0.00005854,-14563.38085938,0,0,0
1314363966.51346350,0.00006222,0.00005849,-14564.67285156,0,0,0
1314363966.56158257,0.00006224,0.00005854,-14565.96484375,0,0,0
1314363966.61363173,0.00006222,0.00005849,-14567.25781250,0,0,0
1314363966.67259169,0.00006224,0.00005854,-14568.54980469,0,0,0
1314363966.71352243,0.00006224,0.00005854,-14570.10058594,0,0,0
1314363966.76145172,0.00006224,0.00005854,-14571.13378906,0,0,0
1314363966.82062650,0.00006221,0.00005849,-14572.42675781,0,0,0
1314363966.86163139,0.00006221,0.00005849,-14573.97753906,0,0,0
1314363966.91347170,0.00006221,0.00005849,-14575.01074219,0,0,0
1314363966.96164656,0.00006223,0.00005854,-14576.30371094,0,0,0
1314363967.02052569,0.00006221,0.00005849,-14577.59570312,0,0,0
1314363967.06550503,0.00006221,0.00005849,-14579.14648438,0,0,0
1314363967.12054014,0.00006221,0.00005849,-14580.18066406,0,0,0
1314363967.16146111,0.00006221,0.00005850,-14581.73144531,0,0,0
1314363967.21262145,0.00006221,0.00005850,-14582.76562500,0,0,0
1314363967.26052523,0.00006223,0.00005854,-14584.05859375,0,0,0
1314363967.31347752,0.00006220,0.00005850,-14585.35058594,0,0,0
1314363967.37261748,0.00006223,0.00005854,-14586.64355469,0,0,0
1314363967.41356015,0.00006222,0.00005854,-14588.19433594,0,0,0
1314363967.47260499,0.00006222,0.00005855,-14589.22851562,0,0,0
1314363967.52065516,0.00006222,0.00005855,-14590.78027344,0,0,0
1314363967.56148195,0.00006220,0.00005850,-14592.07324219,0,0,0
1314363967.62061357,0.00006220,0.00005850,-14593.10742188,0,0,0
1314363967.66159320,0.00006220,0.00005850,-14594.65820312,0,0,0
1314363967.71347713,0.00006220,0.00005850,-14595.69238281,0,0,0
1314363967.76058674,0.00006222,0.00005855,-14596.98535156,0,0,0
1314363967.81260753,0.00006219,0.00005850,-14598.27832031,0,0,0
1314363967.86147857,0.00006222,0.00005855,-14599.57128906,0,0,0
1314363967.92050624,0.00006219,0.00005850,-14600.86425781,0,0,0
1314363967.96146774,0.00006219,0.00005850,-14602.41601562,0,0,0
1314363968.01265097,0.00006219,0.00005850,-14603.45019531,0,0,0
1314363968.06058788,0.00006221,0.00005855,-14604.74316406,0,0,0
1314363968.12146664,0.00006219,0.00005850,-14606.03613281,0,0,0
1314363968.16163397,0.00006219,0.00005850,-14607.58789062,0,0,0
1314363968.22148824,0.00006218,0.00005850,-14608.62304688,0,0,0
1314363968.27256966,0.00006218,0.00005850,-14610.17480469,0,0,0
1314363968.32164478,0.00006220,0.00005855,-14611.46777344,0,0,0
1314363968.36149430,0.00006218,0.00005850,-14612.76074219,0,0,0
1314363968.42058420,0.00006218,0.00005850,-14613.79589844,0,0,0
1314363968.46413159,0.00006218,0.00005850,-14615.34765625,0,0,0
1314363968.51111603,0.00006218,0.00005850,-14616.38281250,0,0,0
1314363968.56146002,0.00006220,0.00005855,-14617.67578125,0,0,0
1314363968.60951209,0.00006218,0.00005850,-14618.96875000,0,0,0
1314363968.67347074,0.00006220,0.00005855,-14620.26269531,0,0,0
1314363968.71353984,0.00006220,0.00005855,-14621.81445312,0,0,0
1314363968.76145506,0.00006219,0.00005855,-14622.84960938,0,0,0
1314363968.82073116,0.00006217,0.00005850,-14624.14257812,0,0,0
1314363968.86154318,0.00006217,0.00005850,-14625.69531250,0,0,0
1314363968.91346359,0.00006217,0.00005850,-14626.72949219,0,0,0
1314363968.96459484,0.00006219,0.00005855,-14628.02343750,0,0,0
1314363969.01012516,0.00006217,0.00005850,-14629.31738281,0,0,0
1314363969.06049895,0.00006219,0.00005855,-14630.61035156,0,0,0
1314363969.12053490,0.00006216,0.00005850,-14631.90429688,0,0,0
1314363969.16144705,0.00006216,0.00005850,-14633.45703125,0,0,0
1314363969.21351337,0.00006216,0.00005850,-14634.49218750,0,0,0
1314363969.26162243,0.00006218,0.00005856,-14635.78613281,0,0,0
1314363969.31344724,0.00006216,0.00005850,-14637.08007812,0,0,0
1314363969.36056948,0.00006218,0.00005856,-14638.37304688,0,0,0
1314363969.42111206,0.00006216,0.00005850,-14639.66699219,0,0,0
1314363969.46148610,0.00006216,0.00005851,-14641.21972656,0,0,0
1314363969.52077246,0.00006216,0.00005851,-14642.25488281,0,0,0
1314363969.56947803,0.00006215,0.00005851,-14643.80761719,0,0,0
1314363969.62169266,0.00006217,0.00005856,-14645.10156250,0,0,0
1314363969.66058350,0.00006215,0.00005851,-14646.39550781,0,0,0
1314363969.71250033,0.00006215,0.00005851,-14647.43066406,0,0,0
1314363969.75951052,0.00006217,0.00005856,-14648.72460938,0,0,0
1314363969.82417440,0.00006215,0.00005851,-14650.01953125,0,0,0
1314363969.86158109,0.00006215,0.00005851,-14651.57226562,0,0,0
1314363969.91253471,0.00006215,0.00005851,-14652.60742188,0,0,0
1314363969.96147656,0.00006217,0.00005856,-14653.90136719,0,0,0
1314363970.02051377,0.00006214,0.00005851,-14655.19628906,0,0,0
1314363970.06155515,0.00006214,0.00005851,-14656.74902344,0,0,0
1314363970.11957407,0.00006214,0.00005851,-14657.78417969,0,0,0
1314363970.16049743,0.00006214,0.00005851,-14659.33789062,0,0,0
1314363970.21249032,0.00006214,0.00005851,-14660.37304688,0,0,0
1314363970.27249217,0.00006216,0.00005856,-14661.66699219,0,0,0
1314363970.31250572,0.00006216,0.00005856,-14663.22070312,0,0,0
1314363970.36151719,0.00006216,0.00005856,-14664.25585938,0,0,0
1314363970.42050362,0.00006214,0.00005851,-14665.55078125,0,0,0
1314363970.46049333,0.00006213,0.00005851,-14667.10449219,0,0,0
1314363970.50950623,0.00006213,0.00005851,-14668.13964844,0,0,0
1314363970.56188655,0.00006215,0.00005856,-14669.43457031,0,0,0
1314363970.62164903,0.00006213,0.00005851,-14670.72851562,0,0,0
1314363970.66949058,0.00006213,0.00005851,-14672.28222656,0,0,0
1314363970.71251273,0.00006215,0.00005856,-14673.57714844,0,0,0
1314363970.76150703,0.00006215,0.00005856,-14674.61230469,0,0,0
1314363970.82049990,0.00006213,0.00005851,-14675.90722656,0,0,0
1314363970.86049294,0.00006213,0.00005851,-14677.46093750,0,0,0
1314363970.92346358,0.00006212,0.00005851,-14678.49707031,0,0,0
1314363970.96153593,0.00006212,0.00005851,-14680.05078125,0,0,0
1314363971.02572155,0.00006212,0.00005851,-14681.08593750,0,0,0
1314363971.06147265,0.00006212,0.00005851,-14682.63964844,0,0,0
1314363971.12057233,0.00006212,0.00005851,-14683.67578125,0,0,0
1314363971.16150069,0.00006212,0.00005851,-14685.22949219,0,0,0
1314363971.22058582,0.00006212,0.00005851,-14686.26562500,0,0,0
1314363971.26150537,0.00006212,0.00005851,-14687.81933594,0,0,0
1314363971.31346607,0.00006212,0.00005851,-14688.85546875,0,0,0
1314363971.36259079,0.00006214,0.00005856,-14690.15039062,0,0,0
1314363971.42162538,0.00006211,0.00005851,-14691.44628906,0,0,0
1314363971.46161866,0.00006211,0.00005851,-14693.00000000,0,0,0
1314363971.52050209,0.00006211,0.00005851,-14694.03613281,0,0,0
1314363971.56145811,0.00006211,0.00005851,-14695.59082031,0,0,0
1314363971.61252379,0.00006211,0.00005851,-14696.62695312,0,0,0
1314363971.66356897,0.00006213,0.00005856,-14697.92187500,0,0,0
1314363971.71354675,0.00006211,0.00005851,-14699.21679688,0,0,0
1314363971.76057553,0.00006213,0.00005856,-14700.51269531,0,0,0
1314363971.82155490,0.00006210,0.00005851,-14701.80761719,0,0,0
1314363971.87351370,0.00006210,0.00005851,-14703.36230469,0,0,0
1314363971.91375780,0.00006212,0.00005856,-14704.65722656,0,0,0
1314363971.97349596,0.00006212,0.00005856,-14705.69433594,0,0,0
1314363972.02059221,0.00006212,0.00005856,-14707.24804688,0,0,0
1314363972.06451654,0.00006210,0.00005851,-14708.54394531,0,0,0
1314363972.11347795,0.00006210,0.00005851,-14709.58007812,0,0,0
1314363972.16154575,0.00006212,0.00005856,-14710.87597656,0,0,0
1314363972.22565794,0.00006210,0.00005851,-14712.17187500,0,0,0
1314363972.27348828,0.00006210,0.00005851,-14713.72656250,0,0,0
1314363972.32047915,0.00006212,0.00005857,-14715.02148438,0,0,0
1314363972.37343550,0.00006209,0.00005851,-14716.31738281,0,0,0
1314363972.41340470,0.00006211,0.00005857,-14717.61328125,0,0,0
1314363972.46142745,0.00006211,0.00005857,-14718.64941406,0,0,0
1314363972.52059269,0.00006209,0.00005851,-14719.94531250,0,0,0
1314363972.56149936,0.00006209,0.00005851,-14721.50097656,0,0,0
1314363972.62045455,0.00006209,0.00005851,-14722.53710938,0,0,0
1314363972.66146684,0.00006209,0.00005851,-14724.09277344,0,0,0
1314363972.72052097,0.00006209,0.00005851,-14725.12890625,0,0,0
1314363972.76145959,0.00006208,0.00005851,-14726.68457031,0,0,0
1314363972.81248975,0.00006208,0.00005851,-14727.72167969,0,0,0
1314363972.87250948,0.00006210,0.00005857,-14729.01660156,0,0,0
1314363972.92148137,0.00006210,0.00005857,-14730.57226562,0,0,0
1314363972.97252345,0.00006208,0.00005851,-14731.86816406,0,0,0
1314363973.02149558,0.00006210,0.00005857,-14733.16406250,0,0,0
1314363973.07344389,0.00006208,0.00005851,-14734.46093750,0,0,0
1314363973.12052822,0.00006210,0.00005857,-14735.75683594,0,0,0
1314363973.17339516,0.00006208,0.00005851,-14737.05273438,0,0,0
1314363973.22052574,0.00006210,0.00005857,-14738.34863281,0,0,0
1314363973.27351356,0.00006207,0.00005851,-14739.64550781,0,0,0
1314363973.32146764,0.00006210,0.00005857,-14740.94140625,0,0,0
1314363973.36138368,0.00006207,0.00005851,-14742.23730469,0,0,0
1314363973.42148089,0.00006207,0.00005851,-14743.27441406,0,0,0
1314363973.47347641,0.00006207,0.00005851,-14744.83007812,0,0,0
1314363973.52052498,0.00006209,0.00005857,-14746.12597656,0,0,0
1314363973.56149340,0.00006207,0.00005852,-14747.42285156,0,0,0
1314363973.62050009,0.00006207,0.00005852,-14748.45996094,0,0,0
1314363973.66150570,0.00006207,0.00005852,-14750.01562500,0,0,0
1314363973.71347976,0.00006207,0.00005852,-14751.05273438,0,0,0
1314363973.76053119,0.00006209,0.00005857,-14752.34863281,0,0,0
1314363973.82148504,0.00006206,0.00005852,-14753.64550781,0,0,0
1314363973.86581612,0.00006206,0.00005852,-14755.20117188,0,0,0
1314363973.92151260,0.00006206,0.00005852,-14756.23828125,0,0,0
1314363973.96145916,0.00006206,0.00005852,-14757.79492188,0,0,0
1314363974.01347995,0.00006206,0.00005852,-14758.83203125,0,0,0
1314363974.06048822,0.00006208,0.00005857,-14760.12792969,0,0,0
1314363974.11349916,0.00006206,0.00005852,-14761.42480469,0,0,0
1314363974.16167521,0.00006208,0.00005857,-14762.72167969,0,0,0
1314363974.22135973,0.00006205,0.00005852,-14764.01855469,0,0,0
1314363974.26152682,0.00006205,0.00005852,-14765.57421875,0,0,0
1314363974.31350136,0.00006205,0.00005852,-14766.61230469,0,0,0
1314363974.36156464,0.00006207,0.00005857,-14767.90820312,0,0,0
1314363974.42047119,0.00006205,0.00005852,-14769.20605469,0,0,0
1314363974.46446562,0.00006205,0.00005852,-14770.76171875,0,0,0
1314363974.52145529,0.00006205,0.00005852,-14771.79980469,0,0,0
1314363974.57257366,0.00006205,0.00005852,-14773.35546875,0,0,0
1314363974.62149024,0.00006207,0.00005857,-14774.65234375,0,0,0
1314363974.67349911,0.00006205,0.00005852,-14775.94921875,0,0,0
1314363974.72052193,0.00006207,0.00005857,-14777.24609375,0,0,0
1314363974.76156616,0.00006204,0.00005852,-14778.54296875,0,0,0
1314363974.82134533,0.00006204,0.00005852,-14779.58105469,0,0,0
1314363974.86453080,0.00006204,0.00005852,-14781.13769531,0,0,0
1314363974.92041874,0.00006204,0.00005852,-14782.17480469,0,0,0
1314363974.96054244,0.00006204,0.00005852,-14783.73144531,0,0,0
1314363975.02047324,0.00006204,0.00005852,-14784.76953125,0,0,0
1314363975.07247043,0.00006204,0.00005852,-14786.32617188,0,0,0
1314363975.12070751,0.00006206,0.00005857,-14787.62304688,0,0,0
1314363975.16146398,0.00006203,0.00005852,-14788.91992188,0,0,0
1314363975.22052312,0.00006203,0.00005852,-14789.95800781,0,0,0
1314363975.27258325,0.00006203,0.00005852,-14791.51464844,0,0,0
1314363975.31346416,0.00006205,0.00005857,-14792.81152344,0,0,0
1314363975.36195755,0.00006205,0.00005857,-14793.84960938,0,0,0
1314363975.42149138,0.00006203,0.00005852,-14795.14648438,0,0,0
1314363975.47330904,0.00006203,0.00005852,-14796.70312500,0,0,0
1314363975.51660037,0.00006205,0.00005857,-14798.00000000,0,0,0
1314363975.56047106,0.00006205,0.00005857,-14799.03808594,0,0,0
1314363975.62134457,0.00006203,0.00005852,-14800.33593750,0,0,0
1314363975.67262077,0.00006202,0.00005852,-14801.89257812,0,0,0
1314363975.71363544,0.00006204,0.00005857,-14803.18945312,0,0,0
1314363975.76166105,0.00006204,0.00005857,-14804.22753906,0,0,0
1314363975.82152629,0.00006202,0.00005852,-14805.52539062,0,0,0
1314363975.87249827,0.00006202,0.00005852,-14807.08203125,0,0,0
1314363975.92145944,0.00006204,0.00005857,-14808.37988281,0,0,0
1314363975.96149206,0.00006202,0.00005852,-14809.67773438,0,0,0
1314363976.02058744,0.00006202,0.00005852,-14810.71582031,0,0,0
1314363976.06051159,0.00006202,0.00005852,-14812.27246094,0,0,0
1314363976.12146544,0.00006201,0.00005852,-14813.31152344,0,0,0
1314363976.17349553,0.00006201,0.00005852,-14814.86816406,0,0,0
